EZS1517 LSGG-EHAM

Flight info

Callsign EZS1517
Flight time 1h 10m
Altitude 38000
Route ARBOS DCT PENDU DCT IXILU DCT GIVOR DCT SORAL DCT IBERA DCT BUB Y28 HELEN
Aircraft A320/M-SDE3FGHIRWY/LB1

Departure

Time 2026-05-05 18:48
Airport Geneva International Airport (LSGG)

Arrival

Time 2026-05-05 19:59
Airport Amsterdam Airport Schiphol (EHAM)
Time Latitude Longitude Altitude Speed Heading
2026-05-05 18:12 46.23032 6.10570 1404 ft 0 kts 135°
2026-05-05 18:34 46.23041 6.10556 1409 ft 4 kts 129°
2026-05-05 18:34 46.23054 6.10524 1399 ft 4 kts 100°
2026-05-05 18:35 46.23052 6.10491 1404 ft 3 kts 47°
2026-05-05 18:35 46.23047 6.10484 1404 ft 0 kts 45°
2026-05-05 18:36 46.23047 6.10483 1404 ft 0 kts 45°
2026-05-05 18:37 46.23046 6.10483 1404 ft 0 kts 45°
2026-05-05 18:40 46.23049 6.10487 1393 ft 1 kts 45°
2026-05-05 18:41 46.23086 6.10543 1396 ft 15 kts 45°
2026-05-05 18:41 46.23158 6.10648 1397 ft 14 kts 45°
2026-05-05 18:41 46.23223 6.10742 1395 ft 13 kts 45°
2026-05-05 18:41 46.23295 6.10792 1393 ft 11 kts 11°
2026-05-05 18:42 46.23356 6.10845 1404 ft 10 kts 45°
2026-05-05 18:42 46.23420 6.10940 1393 ft 16 kts 46°
2026-05-05 18:42 46.23492 6.11046 1393 ft 14 kts 45°
2026-05-05 18:42 46.23567 6.11152 1395 ft 16 kts 34°
2026-05-05 18:43 46.23650 6.11094 1394 ft 14 kts 315°
2026-05-05 18:43 46.23736 6.11125 1384 ft 17 kts 47°
2026-05-05 18:43 46.23837 6.11274 1375 ft 25 kts 45°
2026-05-05 18:43 46.23967 6.11465 1373 ft 29 kts 46°
2026-05-05 18:44 46.24116 6.11685 1367 ft 32 kts 45°
2026-05-05 18:44 46.24283 6.11929 1362 ft 35 kts 46°
2026-05-05 18:44 46.24450 6.12173 1371 ft 33 kts 46°
2026-05-05 18:44 46.24579 6.12365 1371 ft 23 kts 45°
2026-05-05 18:45 46.24678 6.12509 1364 ft 21 kts 45°
2026-05-05 18:45 46.24772 6.12644 1362 ft 17 kts 38°
2026-05-05 18:45 46.24859 6.12695 1364 ft 11 kts 17°
2026-05-05 18:45 46.24914 6.12719 1366 ft 3 kts 17°
2026-05-05 18:46 46.24922 6.12723 1366 ft 0 kts 17°
2026-05-05 18:46 46.24926 6.12724 1365 ft 2 kts 17°
2026-05-05 18:46 46.24952 6.12730 1368 ft 7 kts 358°
2026-05-05 18:47 46.24992 6.12689 1371 ft 5 kts 297°
2026-05-05 18:47 46.24994 6.12648 1372 ft 6 kts 256°
2026-05-05 18:47 46.24961 6.12590 1372 ft 9 kts 226°
2026-05-05 18:47 46.24827 6.12395 1372 ft 62 kts 225°
2026-05-05 18:48 46.24355 6.11703 1372 ft 128 kts 225°
2026-05-05 18:48 46.23628 6.10621 1578 ft 160 kts 225°
2026-05-05 18:48 46.22859 6.09451 2259 ft 160 kts 224°
2026-05-05 18:48 46.22074 6.08294 2968 ft 166 kts 225°
2026-05-05 18:49 46.21206 6.07031 3299 ft 189 kts 224°
2026-05-05 18:49 46.20216 6.05596 3718 ft 214 kts 224°
2026-05-05 18:49 46.19108 6.03991 4228 ft 238 kts 225°
2026-05-05 18:49 46.17915 6.02261 5058 ft 246 kts 225°
2026-05-05 18:50 46.16703 6.00499 6064 ft 249 kts 225°
2026-05-05 18:50 46.15499 5.98726 7003 ft 252 kts 227°
2026-05-05 18:50 46.14573 5.96558 7898 ft 260 kts 249°
2026-05-05 18:50 46.14337 5.93940 8750 ft 270 kts 272°
2026-05-05 18:51 46.14862 5.91304 9641 ft 282 kts 295°
2026-05-05 18:51 46.16148 5.89117 10472 ft 293 kts 320°
2026-05-05 18:51 46.18024 5.87864 11223 ft 308 kts 341°
2026-05-05 18:51 46.20186 5.87088 11523 ft 332 kts 343°
2026-05-05 18:52 46.22443 5.86140 12110 ft 342 kts 339°
2026-05-05 18:52 46.24705 5.85009 12891 ft 347 kts 337°
2026-05-05 18:52 46.26983 5.83798 13705 ft 351 kts 336°
2026-05-05 18:52 46.29250 5.82563 14402 ft 355 kts 336°
2026-05-05 18:53 46.31579 5.81290 14767 ft 359 kts 336°
2026-05-05 18:53 46.33918 5.80026 14878 ft 359 kts 336°
2026-05-05 18:53 46.36263 5.78776 14901 ft 359 kts 337°
2026-05-05 18:53 46.38609 5.77539 14896 ft 359 kts 337°
2026-05-05 18:54 46.40961 5.76307 15022 ft 363 kts 337°
2026-05-05 18:54 46.43338 5.75057 15813 ft 364 kts 337°
2026-05-05 18:54 46.45724 5.73795 16582 ft 366 kts 337°
2026-05-05 18:54 46.48121 5.72521 17304 ft 369 kts 337°
2026-05-05 18:55 46.50550 5.71226 18015 ft 373 kts 337°
2026-05-05 18:55 46.52998 5.69920 18624 ft 377 kts 337°
2026-05-05 18:55 46.55459 5.68549 19205 ft 380 kts 332°
2026-05-05 18:55 46.57798 5.66751 19791 ft 382 kts 327°
2026-05-05 18:56 46.60130 5.64854 20370 ft 387 kts 329°
2026-05-05 18:56 46.62619 5.63411 20915 ft 396 kts 343°
2026-05-05 18:56 46.65376 5.62913 21466 ft 404 kts 359°
2026-05-05 18:56 46.68177 5.63481 22012 ft 411 kts 15°
2026-05-05 18:57 46.70823 5.65116 22545 ft 416 kts 32°
2026-05-05 18:57 46.73110 5.67710 23105 ft 419 kts 44°
2026-05-05 18:57 46.75265 5.70599 23633 ft 423 kts 39°
2026-05-05 18:57 46.77780 5.72835 24110 ft 426 kts 22°
2026-05-05 18:58 46.80638 5.74011 24556 ft 429 kts 10°
2026-05-05 18:58 46.83575 5.74868 25004 ft 432 kts 10°
2026-05-05 18:58 46.86534 5.75714 25445 ft 435 kts
2026-05-05 18:58 46.89518 5.76563 25860 ft 439 kts
2026-05-05 18:59 46.92486 5.77412 26270 ft 442 kts 10°
2026-05-05 18:59 46.95515 5.78284 26689 ft 445 kts 10°
2026-05-05 18:59 46.98563 5.79168 27093 ft 448 kts 10°
2026-05-05 18:59 47.01633 5.80062 27487 ft 451 kts 10°
2026-05-05 19:00 47.04723 5.80962 27894 ft 454 kts 10°
2026-05-05 19:00 47.07833 5.81871 28303 ft 457 kts 10°
2026-05-05 19:00 47.10957 5.82785 28700 ft 459 kts 10°
2026-05-05 19:00 47.14096 5.83701 29079 ft 462 kts 10°
2026-05-05 19:01 47.17262 5.84628 29449 ft 465 kts 10°
2026-05-05 19:01 47.20441 5.85565 29808 ft 467 kts 11°
2026-05-05 19:01 47.23638 5.86510 30129 ft 470 kts 11°
2026-05-05 19:01 47.26800 5.87443 30497 ft 470 kts 11°
2026-05-05 19:02 47.30007 5.88385 30839 ft 470 kts 11°
2026-05-05 19:02 47.33223 5.89330 31139 ft 472 kts 11°
2026-05-05 19:02 47.36451 5.90283 31427 ft 474 kts 11°
2026-05-05 19:02 47.39688 5.91240 31760 ft 474 kts 10°
2026-05-05 19:03 47.42913 5.92189 32163 ft 473 kts 10°
2026-05-05 19:03 47.46135 5.93140 32569 ft 471 kts 10°
2026-05-05 19:03 47.49349 5.94090 32977 ft 470 kts 10°
2026-05-05 19:03 47.52552 5.95043 33378 ft 469 kts 10°
2026-05-05 19:04 47.55751 5.96000 33778 ft 468 kts 10°
2026-05-05 19:04 47.58899 5.96942 34109 ft 468 kts 10°
2026-05-05 19:04 47.62090 5.97896 34418 ft 467 kts 10°
2026-05-05 19:04 47.65275 5.98845 34708 ft 467 kts 10°
2026-05-05 19:05 47.68461 5.99793 35021 ft 466 kts 10°
2026-05-05 19:05 47.71638 6.00742 35305 ft 466 kts 10°
2026-05-05 19:05 47.74817 6.01695 35566 ft 466 kts 10°
2026-05-05 19:05 47.78001 6.02650 35823 ft 466 kts 10°
2026-05-05 19:06 47.81183 6.03607 36077 ft 467 kts 10°
2026-05-05 19:06 47.84363 6.04566 36329 ft 467 kts 10°
2026-05-05 19:06 47.87549 6.05531 36587 ft 466 kts 10°
2026-05-05 19:06 47.90682 6.06482 36842 ft 466 kts 10°
2026-05-05 19:07 47.93861 6.07443 37083 ft 466 kts 10°
2026-05-05 19:07 47.97042 6.08398 37313 ft 466 kts 10°
2026-05-05 19:07 48.00220 6.09354 37534 ft 466 kts 10°
2026-05-05 19:07 48.03404 6.10314 37752 ft 467 kts 10°
2026-05-05 19:08 48.09766 6.12237 37847 ft 465 kts 10°
2026-05-05 19:08 48.16096 6.14163 37839 ft 464 kts 10°
2026-05-05 19:09 48.22420 6.16092 37836 ft 464 kts 10°
2026-05-05 19:09 48.28744 6.18029 37843 ft 463 kts 11°
2026-05-05 19:10 48.35010 6.19948 37836 ft 463 kts 11°
2026-05-05 19:10 48.41322 6.21887 37842 ft 463 kts 11°
2026-05-05 19:11 48.47630 6.23840 37858 ft 463 kts 11°
2026-05-05 19:11 48.53947 6.25786 37850 ft 463 kts 11°
2026-05-05 19:12 48.60214 6.27716 37853 ft 463 kts 11°
2026-05-05 19:12 48.66504 6.29679 37858 ft 462 kts 11°
2026-05-05 19:13 48.72807 6.31651 37851 ft 462 kts 11°
2026-05-05 19:13 48.79109 6.33617 37856 ft 462 kts 11°
2026-05-05 19:14 48.85411 6.35588 37854 ft 462 kts 11°
2026-05-05 19:14 48.91712 6.37571 37856 ft 462 kts 11°
2026-05-05 19:15 48.97963 6.39543 37854 ft 462 kts 11°
2026-05-05 19:15 49.04254 6.41517 37854 ft 461 kts 11°
2026-05-05 19:16 49.10589 6.42933 37856 ft 459 kts 359°
2026-05-05 19:16 49.16861 6.41530 37861 ft 456 kts 343°
2026-05-05 19:17 49.22978 6.39000 37856 ft 456 kts 343°
2026-05-05 19:17 49.29062 6.36501 37850 ft 456 kts 343°
2026-05-05 19:18 49.35186 6.33990 37841 ft 456 kts 343°
2026-05-05 19:18 49.41308 6.31458 37839 ft 456 kts 343°
2026-05-05 19:19 49.47429 6.28906 37826 ft 456 kts 341°
2026-05-05 19:19 49.53063 6.24779 37833 ft 451 kts 323°
2026-05-05 19:20 49.58017 6.18881 37820 ft 450 kts 320°
2026-05-05 19:20 49.62950 6.12919 37821 ft 451 kts 320°
2026-05-05 19:21 49.67885 6.06956 37822 ft 451 kts 320°
2026-05-05 19:21 49.72793 6.01025 37828 ft 451 kts 320°
2026-05-05 19:22 49.77726 5.95039 37836 ft 451 kts 320°
2026-05-05 19:22 49.82649 5.89037 37852 ft 451 kts 320°
2026-05-05 19:23 49.87582 5.83005 37849 ft 451 kts 320°
2026-05-05 19:23 49.92470 5.77018 37849 ft 451 kts 320°
2026-05-05 19:24 49.97391 5.70972 37847 ft 451 kts 320°
2026-05-05 19:24 50.02305 5.64913 37851 ft 451 kts 320°
2026-05-05 19:25 50.07222 5.58854 37853 ft 451 kts 320°
2026-05-05 19:25 50.12136 5.52768 37851 ft 451 kts 320°
2026-05-05 19:26 50.17018 5.46706 37863 ft 452 kts 320°
2026-05-05 19:26 50.21935 5.40586 37862 ft 452 kts 320°
2026-05-05 19:27 50.26856 5.34458 37860 ft 452 kts 320°
2026-05-05 19:27 50.31775 5.28310 37864 ft 453 kts 319°
2026-05-05 19:28 50.36689 5.22141 37866 ft 453 kts 319°
2026-05-05 19:28 50.41564 5.16003 37873 ft 453 kts 319°
2026-05-05 19:29 50.46471 5.09810 37873 ft 453 kts 319°
2026-05-05 19:29 50.51372 5.03605 37890 ft 452 kts 319°
2026-05-05 19:30 50.56268 4.97388 37892 ft 452 kts 319°
2026-05-05 19:30 50.61120 4.91211 37887 ft 452 kts 319°
2026-05-05 19:31 50.63564 4.88097 37599 ft 451 kts 319°
2026-05-05 19:31 50.66003 4.84983 37327 ft 451 kts 319°
2026-05-05 19:31 50.68437 4.81872 37057 ft 451 kts 319°
2026-05-05 19:31 50.70874 4.78754 36796 ft 452 kts 319°
2026-05-05 19:32 50.73314 4.75633 36533 ft 452 kts 319°
2026-05-05 19:32 50.75756 4.72505 36178 ft 450 kts 319°
2026-05-05 19:32 50.78176 4.69393 35634 ft 447 kts 319°
2026-05-05 19:32 50.80549 4.66332 35115 ft 445 kts 319°
2026-05-05 19:33 50.82939 4.63244 34566 ft 443 kts 319°
2026-05-05 19:33 50.85321 4.60164 34016 ft 441 kts 319°
2026-05-05 19:33 50.87696 4.57095 33435 ft 439 kts 319°
2026-05-05 19:33 50.89892 4.53788 32938 ft 433 kts 309°
2026-05-05 19:34 50.91704 4.50029 32428 ft 427 kts 300°
2026-05-05 19:34 50.93247 4.46040 31929 ft 423 kts 299°
2026-05-05 19:34 50.94776 4.42079 31438 ft 420 kts 299°
2026-05-05 19:35 50.97802 4.34240 30482 ft 413 kts 300°
2026-05-05 19:35 50.99277 4.30413 30025 ft 411 kts 300°
2026-05-05 19:35 51.00760 4.26561 29530 ft 407 kts 300°
2026-05-05 19:35 51.02227 4.22742 29089 ft 403 kts 300°
2026-05-05 19:36 51.03675 4.18965 28650 ft 398 kts 300°
2026-05-05 19:36 51.05103 4.15225 28225 ft 394 kts 300°
2026-05-05 19:36 51.06513 4.11520 27805 ft 390 kts 300°
2026-05-05 19:36 51.07908 4.07850 27379 ft 386 kts 300°
2026-05-05 19:37 51.09455 4.04387 26955 ft 383 kts 310°
2026-05-05 19:37 51.11315 4.01453 26530 ft 381 kts 320°
2026-05-05 19:37 51.13450 3.98901 26087 ft 378 kts 323°
2026-05-05 19:37 51.15533 3.96463 25645 ft 375 kts 323°
2026-05-05 19:38 51.17627 3.94001 25191 ft 373 kts 323°
2026-05-05 19:38 51.19709 3.91543 24736 ft 371 kts 322°
2026-05-05 19:38 51.21856 3.89276 24263 ft 370 kts 332°
2026-05-05 19:38 51.24227 3.87703 23794 ft 369 kts 344°
2026-05-05 19:39 51.26740 3.86933 23285 ft 368 kts 356°
2026-05-05 19:39 51.29295 3.86832 22778 ft 366 kts 359°
2026-05-05 19:39 51.31833 3.86783 22303 ft 364 kts 359°
2026-05-05 19:39 51.34325 3.86727 21835 ft 362 kts 359°
2026-05-05 19:40 51.36838 3.86667 21362 ft 360 kts 359°
2026-05-05 19:40 51.39339 3.86606 20895 ft 359 kts 359°
2026-05-05 19:40 51.41832 3.86544 20429 ft 358 kts 359°
2026-05-05 19:40 51.44316 3.86481 19962 ft 357 kts 359°
2026-05-05 19:41 51.46797 3.86419 19501 ft 356 kts 360°
2026-05-05 19:41 51.49273 3.86362 19033 ft 356 kts 360°
2026-05-05 19:41 51.51749 3.86307 18565 ft 355 kts
2026-05-05 19:41 51.54217 3.86252 18089 ft 354 kts
2026-05-05 19:42 51.56631 3.86196 17605 ft 347 kts
2026-05-05 19:42 51.58989 3.86137 17157 ft 332 kts
2026-05-05 19:42 51.61267 3.86081 16732 ft 324 kts
2026-05-05 19:42 51.63505 3.86027 16320 ft 319 kts
2026-05-05 19:43 51.65717 3.85969 15915 ft 317 kts
2026-05-05 19:43 51.67915 3.85914 15497 ft 314 kts
2026-05-05 19:43 51.70097 3.85995 15085 ft 314 kts 10°
2026-05-05 19:43 51.72199 3.86855 14677 ft 312 kts 23°
2026-05-05 19:44 51.74094 3.88518 14272 ft 310 kts 37°
2026-05-05 19:44 51.75729 3.90774 13873 ft 309 kts 42°
2026-05-05 19:44 51.77307 3.93057 13446 ft 309 kts 42°
2026-05-05 19:44 51.78894 3.95346 13062 ft 307 kts 42°
2026-05-05 19:45 51.80487 3.97642 12630 ft 306 kts 41°
2026-05-05 19:45 51.82072 3.99925 12235 ft 304 kts 41°
2026-05-05 19:45 51.83647 4.02195 11847 ft 303 kts 41°
2026-05-05 19:45 51.85212 4.04456 11449 ft 301 kts 41°
2026-05-05 19:46 51.86769 4.06707 11078 ft 299 kts 41°
2026-05-05 19:46 51.88332 4.08868 10828 ft 293 kts 39°
2026-05-05 19:46 51.89895 4.10959 10581 ft 290 kts 39°
2026-05-05 19:46 51.91444 4.13004 10315 ft 285 kts 38°
2026-05-05 19:47 51.92957 4.14996 9958 ft 284 kts 38°
2026-05-05 19:47 51.94487 4.17015 9557 ft 283 kts 39°
2026-05-05 19:47 51.95992 4.19010 9293 ft 271 kts 38°
2026-05-05 19:47 51.97393 4.20875 9085 ft 253 kts 38°
2026-05-05 19:48 51.98724 4.22659 8653 ft 245 kts 39°
2026-05-05 19:48 52.00022 4.24404 8146 ft 240 kts 39°
2026-05-05 19:48 52.01305 4.26129 7733 ft 239 kts 39°
2026-05-05 19:48 52.02583 4.27848 7385 ft 235 kts 38°
2026-05-05 19:49 52.03790 4.29476 7183 ft 218 kts 39°
2026-05-05 19:49 52.04553 4.30505 6899 ft 214 kts 38°
2026-05-05 19:49 52.06061 4.32532 6373 ft 212 kts 38°
2026-05-05 19:49 52.07186 4.34050 6005 ft 209 kts 38°
2026-05-05 19:50 52.08287 4.35539 5655 ft 202 kts 39°
2026-05-05 19:50 52.09349 4.36972 5339 ft 195 kts 39°
2026-05-05 19:50 52.10367 4.38349 5055 ft 185 kts 39°
2026-05-05 19:50 52.11330 4.39652 4748 ft 175 kts 39°
2026-05-05 19:51 52.12245 4.40887 4446 ft 166 kts 39°
2026-05-05 19:51 52.13113 4.42060 4176 ft 159 kts 40°
2026-05-05 19:51 52.13943 4.43180 3923 ft 151 kts 39°
2026-05-05 19:51 52.14725 4.44240 3667 ft 144 kts 40°
2026-05-05 19:52 52.15470 4.45251 3449 ft 136 kts 40°
2026-05-05 19:52 52.16170 4.46202 3268 ft 130 kts 40°
2026-05-05 19:52 52.16867 4.47148 3240 ft 131 kts 41°
2026-05-05 19:52 52.17561 4.48091 3212 ft 131 kts 40°
2026-05-05 19:53 52.18259 4.49041 3181 ft 130 kts 40°
2026-05-05 19:53 52.18954 4.49985 3117 ft 131 kts 40°
2026-05-05 19:53 52.19655 4.50934 3047 ft 131 kts 40°
2026-05-05 19:53 52.20337 4.51896 3014 ft 129 kts 43°
2026-05-05 19:54 52.20909 4.52999 3009 ft 129 kts 52°
2026-05-05 19:54 52.21394 4.54243 2861 ft 130 kts 55°
2026-05-05 19:54 52.21868 4.55476 2656 ft 128 kts 55°
2026-05-05 19:54 52.22338 4.56694 2479 ft 127 kts 54°
2026-05-05 19:55 52.22807 4.57907 2298 ft 126 kts 55°
2026-05-05 19:55 52.23275 4.59117 2124 ft 126 kts 55°
2026-05-05 19:55 52.23741 4.60323 1936 ft 125 kts 55°
2026-05-05 19:55 52.24208 4.61530 1771 ft 126 kts 55°
2026-05-05 19:56 52.24667 4.62717 1602 ft 125 kts 55°
2026-05-05 19:56 52.25130 4.63916 1433 ft 124 kts 56°
2026-05-05 19:56 52.25591 4.65108 1233 ft 124 kts 55°
2026-05-05 19:56 52.26054 4.66315 1090 ft 126 kts 55°
2026-05-05 19:57 52.26517 4.67518 889 ft 125 kts 54°
2026-05-05 19:57 52.26825 4.68316 788 ft 126 kts 55°
2026-05-05 19:57 52.27464 4.69975 590 ft 132 kts 54°
2026-05-05 19:57 52.27952 4.71245 416 ft 133 kts 52°
2026-05-05 19:58 52.28437 4.72518 242 ft 132 kts 54°
2026-05-05 19:58 52.28900 4.73701 60 ft 132 kts 54°
2026-05-05 19:58 52.29338 4.74827 0 ft 111 kts 58°
2026-05-05 19:58 52.29628 4.75585 -1 ft 67 kts 58°
2026-05-05 19:59 52.29811 4.76060 -4 ft 37 kts 58°
2026-05-05 19:59 52.29929 4.76374 -4 ft 29 kts 58°
2026-05-05 19:59 52.30066 4.76572 -2 ft 25 kts 28°
2026-05-05 19:59 52.30212 4.76697 -1 ft 23 kts 28°
2026-05-05 20:00 52.30330 4.76869 -1 ft 24 kts 58°
2026-05-05 20:00 52.30420 4.77100 -1 ft 25 kts 57°
2026-05-05 20:00 52.30512 4.77340 -1 ft 26 kts 59°
2026-05-05 20:00 52.30623 4.77571 -1 ft 26 kts 28°
2026-05-05 20:01 52.30798 4.77600 -1 ft 24 kts
2026-05-05 20:01 52.30959 4.77617 -1 ft 23 kts
2026-05-05 20:01 52.31122 4.77630 -1 ft 24 kts
2026-05-05 20:01 52.31292 4.77646 -1 ft 25 kts
2026-05-05 20:02 52.31461 4.77627 -1 ft 25 kts 333°
2026-05-05 20:02 52.31570 4.77429 -1 ft 26 kts 289°
2026-05-05 20:02 52.31570 4.77124 -1 ft 29 kts 267°
2026-05-05 20:02 52.31558 4.76806 -1 ft 28 kts 266°
2026-05-05 20:03 52.31547 4.76483 -1 ft 28 kts 267°
2026-05-05 20:03 52.31537 4.76169 -1 ft 25 kts 266°
2026-05-05 20:03 52.31527 4.75890 -1 ft 26 kts 267°
2026-05-05 20:03 52.31517 4.75591 -1 ft 23 kts 267°
2026-05-05 20:04 52.31463 4.75442 -1 ft 16 kts 189°
2026-05-05 20:04 52.31356 4.75447 -1 ft 15 kts 177°
2026-05-05 20:04 52.31255 4.75457 -1 ft 14 kts 176°
2026-05-05 20:04 52.31161 4.75464 -1 ft 12 kts 182°
2026-05-05 20:05 52.31106 4.75384 -1 ft 11 kts 237°
2026-05-05 20:05 52.31056 4.75356 -1 ft 8 kts 144°
2026-05-05 20:05 52.31017 4.75397 -1 ft 3 kts 147°
2026-05-05 20:05 52.31012 4.75402 -1 ft 1 kts 148°
2026-05-05 20:06 52.31008 4.75406 -1 ft 1 kts 148°
2026-05-05 20:06 52.31004 4.75411 -1 ft 0 kts 148°